Date String (YYYY-MM-DD hh:mm:ss) UTC,Instrument flags,absolute air pressure of the measurement (hPa),sample flow rate (lpm),inlet stack bypass flow (lpm),air temperature of the measurement (°C),ambient temperature measured by the external sensor (°C),aerosol sample conditioner tube jacket temperature (°C),OPC LED temperature (°C),internal box temperature (°C),relative humidity of the measurement (%),span deviation,mass concentration of particles derived from Lorenz-Mie calculation of OPC scattering (μg/m³),mass concentration of particles derived from Lorenz-Mie calculation of OPC scattering (μg/m³),mass concentration of particles derived from Lorenz-Mie calculation of OPC scattering (μg/m³)
DateTimeUTC,F1_M11,P_M11,Q1_M11,Q2_M11,T1_M11,T2_M11,T3_M11,T4_M11,T5_M11,U1_M11,ZSPAN_M11,X0_M11,X2_M11,X1_M11
2023-08-29 09:00:00,SystemResetWarning,0839.0,5.01,000.00,028.8,027.5,000.0,037.4,030.4,32.1,0000.0,0005.93,0003.27,0002.76
2023-08-29 09:01:00,SystemResetWarning,0839.0,5.01,000.00,028.8,027.5,000.0,037.4,030.4,32.1,0000.0,0005.78,0003.26,0002.76
2023-08-29 09:02:00,SystemResetWarning,0839.1,5.00,000.00,028.8,027.5,000.0,037.4,030.4,32.0,0000.0,0006.89,0003.28,0002.77
2023-08-29 09:03:00,SystemResetWarning,0839.1,5.00,000.00,028.9,027.5,000.0,037.4,030.4,31.9,0000.0,0007.69,0003.33,0002.81
2023-08-29 09:04:00,SystemResetWarning,0839.1,4.98,000.00,028.8,025.9,000.0,037.3,030.2,31.7,0000.0,0008.23,0003.37,0002.84
2023-08-29 09:05:00,SystemResetWarning,0839.0,5.00,000.00,028.7,024.4,000.0,037.2,029.9,31.9,0000.0,0007.95,0003.36,0002.86
2023-08-29 09:06:00,SystemResetWarning,0839.0,5.01,000.00,028.6,024.1,000.0,037.1,029.5,32.1,0000.0,0008.00,0003.38,0002.89
2023-08-29 09:07:00,SystemResetWarning,0839.0,5.02,000.00,028.4,024.4,000.0,037.1,029.4,32.3,0000.0,0008.06,0003.41,0002.92
2023-08-29 09:08:00,SystemResetWarning,0839.0,5.00,000.00,028.3,024.8,000.0,037.1,029.5,32.4,0000.0,0008.02,0003.44,0002.95
2023-08-29 09:09:00,SystemResetWarning,0839.0,5.00,000.00,028.3,025.2,000.0,037.1,029.6,32.4,0000.0,0007.99,0003.45,0002.97
2023-08-29 09:10:00,SystemResetWarning,0838.9,5.00,000.00,028.3,025.6,000.0,037.1,029.7,32.4,0000.0,0008.01,0003.44,0002.99
2023-08-29 09:11:00,SystemResetWarning,0838.9,5.00,000.00,028.3,025.9,000.0,037.1,029.7,32.3,0000.0,0008.00,0003.45,0003.02
2023-08-29 09:12:00,SystemResetWarning,0838.9,5.01,000.00,028.3,026.1,000.0,037.1,029.8,32.3,0000.0,0008.04,0003.46,0003.04
2023-08-29 09:13:00,SystemResetWarning,0839.1,5.00,000.00,028.3,026.3,000.0,037.0,029.8,32.3,0000.0,0007.59,0003.46,0003.04
2023-08-29 09:14:00,SystemResetWarning,0839.2,4.99,000.00,028.3,026.5,000.0,037.0,029.8,32.3,0000.0,0006.85,0003.43,0003.04
2023-08-29 09:15:00,SystemResetWarning,0839.1,5.00,000.00,028.3,026.6,000.0,037.0,029.9,32.3,0000.0,0005.74,0003.42,0003.03
2023-08-29 09:16:00,SystemResetWarning,0839.1,5.00,000.00,028.3,026.8,000.0,037.0,029.9,32.2,0000.0,0006.05,0003.44,0003.03
2023-08-29 09:17:00,SystemResetWarning,0839.2,5.00,000.00,028.4,026.9,000.0,037.0,029.9,32.2,0000.0,0006.10,0003.44,0003.03
2023-08-29 09:18:00,SystemResetWarning,0839.2,4.98,000.00,028.4,027.0,000.0,037.0,029.9,32.2,0000.0,0006.02,0003.46,0003.03
2023-08-29 09:19:00,SystemResetWarning,0839.2,5.00,000.00,028.4,027.0,000.0,037.0,030.0,32.2,0000.0,0006.03,0003.45,0003.03
2023-08-29 09:20:00,SystemResetWarning,0839.2,5.01,000.00,028.4,027.1,000.0,037.0,030.0,32.1,0000.0,0005.89,0003.43,0003.01
2023-08-29 09:21:00,SystemResetWarning,0839.2,5.00,000.00,028.4,027.1,000.0,037.0,030.0,32.0,0000.0,0005.84,0003.46,0002.99
2023-08-29 09:22:00,SystemResetWarning,0839.2,4.99,000.00,028.5,027.2,000.0,037.0,030.1,32.0,0000.0,0005.83,0003.46,0002.96
2023-08-29 09:23:00,SystemResetWarning,0839.1,5.00,000.00,028.5,027.2,000.0,037.1,030.1,31.9,0000.0,0006.11,0003.42,0002.92
2023-08-29 09:24:00,SystemResetWarning,0839.1,5.01,000.00,028.5,027.2,000.0,037.1,030.1,31.9,0000.0,0006.07,0003.42,0002.92
2023-08-29 09:25:00,SystemResetWarning,0839.2,5.01,000.00,028.5,027.2,000.0,037.1,030.1,31.8,0000.0,0006.00,0003.42,0002.93
2023-08-29 09:26:00,SystemResetWarning,0839.2,5.01,000.00,028.5,027.3,000.0,037.1,030.2,31.6,0000.0,0005.94,0003.41,0002.94
2023-08-29 09:27:00,SystemResetWarning,0839.2,4.99,000.00,028.5,027.3,000.0,037.1,030.2,31.5,0000.0,0005.59,0003.39,0002.94
2023-08-29 09:28:00,SystemResetWarning,0839.2,4.99,000.00,028.6,027.3,000.0,037.1,030.2,31.4,0000.0,0005.40,0003.37,0002.93
2023-08-29 09:29:00,SystemResetWarning,0839.2,5.01,000.00,028.6,027.4,000.0,037.1,030.2,31.4,0000.0,0005.46,0003.32,0002.91
2023-08-29 09:30:00,SystemResetWarning,0839.1,5.00,000.00,028.6,027.4,000.0,037.2,030.2,31.4,0000.0,0005.89,0003.29,0002.88
2023-08-29 09:31:00,SystemResetWarning,0839.1,5.01,000.00,028.6,027.4,000.0,037.2,030.2,31.3,0000.0,0006.33,0003.29,0002.87
2023-08-29 09:32:00,SystemResetWarning,0839.2,5.01,000.00,028.6,027.4,000.0,037.2,030.2,31.2,0000.0,0006.21,0003.25,0002.85
2023-08-29 09:33:00,SystemResetWarning,0839.2,5.00,000.00,028.6,027.4,000.0,037.2,030.2,31.1,0000.0,0006.75,0003.22,0002.86
2023-08-29 09:34:00,SystemResetWarning,0839.1,5.00,000.00,028.7,027.4,000.0,037.2,030.3,31.1,0000.0,0006.95,0003.23,0002.87
2023-08-29 09:35:00,SystemResetWarning,0839.2,4.99,000.00,028.7,027.5,000.0,037.2,030.3,31.1,0000.0,0006.93,0003.25,0002.87
2023-08-29 09:36:00,SystemResetWarning,0839.2,5.00,000.00,028.7,027.5,000.0,037.2,030.3,31.1,0000.0,0006.92,0003.24,0002.85
2023-08-29 09:37:00,SystemResetWarning,0839.2,5.00,000.00,028.7,027.5,000.0,037.3,030.3,31.0,0000.0,0007.09,0003.23,0002.83
2023-08-29 09:38:00,SystemResetWarning,0839.2,5.01,000.00,028.7,027.5,000.0,037.3,030.3,30.9,0000.0,0007.37,0003.22,0002.82
2023-08-29 09:39:00,SystemResetWarning,0839.1,5.01,000.00,028.7,027.5,000.0,037.3,030.3,30.8,0000.0,0007.49,0003.25,0002.82
2023-08-29 09:40:00,SystemResetWarning,0839.1,5.00,000.00,028.7,027.5,000.0,037.3,030.3,30.7,0000.0,0007.56,0003.28,0002.81
2023-08-29 09:41:00,SystemResetWarning,0839.1,4.99,000.00,028.8,027.5,000.0,037.3,030.3,30.8,0000.0,0007.62,0003.32,0002.82
2023-08-29 09:42:00,SystemResetWarning,0839.1,5.00,000.00,028.8,027.5,000.0,037.3,030.3,30.8,0000.0,0007.97,0003.31,0002.82
2023-08-29 09:43:00,SystemResetWarning,0839.2,4.99,000.00,028.8,027.5,000.0,037.3,030.4,30.8,0000.0,0007.99,0003.33,0002.82
2023-08-29 09:44:00,SystemResetWarning,0839.2,5.00,000.00,028.8,027.5,000.0,037.3,030.4,30.7,0000.0,0007.79,0003.34,0002.82
2023-08-29 09:45:00,SystemResetWarning,0839.1,5.00,000.00,028.8,027.5,000.0,037.4,030.4,30.7,0000.0,0007.37,0003.34,0002.83
2023-08-29 09:46:00,SystemResetWarning,0839.2,5.00,000.00,028.8,027.5,000.0,037.4,030.4,30.6,0000.0,0007.38,0003.34,0002.84
2023-08-29 09:47:00,SystemResetWarning,0839.2,5.01,000.00,028.8,027.5,000.0,037.4,030.4,30.6,0000.0,0007.41,0003.34,0002.84
2023-08-29 09:48:00,SystemResetWarning,0839.1,5.01,000.00,028.8,027.5,000.0,037.4,030.4,30.6,0000.0,0007.49,0003.36,0002.85
2023-08-29 09:49:00,SystemResetWarning,0839.1,5.01,000.00,028.8,027.6,000.0,037.4,030.4,30.5,0000.0,0007.75,0003.40,0002.85
2023-08-29 09:50:00,SystemResetWarning,0839.1,4.99,000.00,028.8,026.7,000.0,037.3,030.3,30.4,0000.0,0007.80,0003.38,0002.85
2023-08-29 09:51:00,SystemResetWarning,0839.1,4.99,000.00,028.8,024.8,000.0,037.2,030.0,30.5,0000.0,0007.76,0003.35,0002.85
2023-08-29 09:52:00,SystemResetWarning,0839.1,5.00,000.00,028.7,024.1,000.0,037.1,029.7,30.7,0000.0,0007.62,0003.31,0002.85
2023-08-29 09:53:00,SystemResetWarning,0839.1,5.01,000.00,028.5,024.3,000.0,037.1,029.5,30.9,0000.0,0007.99,0003.31,0002.86
2023-08-29 09:54:00,SystemResetWarning,0839.1,5.02,000.00,028.4,024.6,000.0,037.1,029.5,31.0,0000.0,0008.16,0003.34,0002.87
2023-08-29 09:55:00,SystemResetWarning,0839.2,5.00,000.00,028.3,025.1,000.0,037.1,029.6,31.0,0000.0,0008.33,0003.36,0002.88
2023-08-29 09:56:00,SystemResetWarning,0839.1,5.00,000.00,028.3,025.5,000.0,037.1,029.7,30.6,0000.0,0008.45,0003.37,0002.87
2023-08-29 09:57:00,SystemResetWarning,0839.2,5.00,000.00,028.3,025.8,000.0,037.1,029.7,30.5,0000.0,0008.53,0003.40,0002.87
2023-08-29 09:58:00,SystemResetWarning,0839.2,5.00,000.00,028.3,026.1,000.0,037.1,029.8,30.6,0000.0,0008.53,0003.42,0002.89
2023-08-29 09:59:00,SystemResetWarning,0839.2,5.00,000.00,028.3,026.3,000.0,037.0,029.8,30.7,0000.0,0008.61,0003.41,0002.90
